UKV5035 RJGG-RJBB

Flight info

Callsign UKV5035
Flight time 0h 38m
Altitude 28000
Route KEC Y43 KISEI Y46 CANDY
Aircraft A321/M-SDE3FGHIRWY/LB1

Departure

Time 2026-05-07 10:40
Airport Chubu Centrair International Airport (RJGG)

Arrival

Time 2026-05-07 11:19
Airport Kansai International Airport (RJBB)
Time Latitude Longitude Altitude Speed Heading
2026-05-07 10:12 34.85777 136.81165 29 ft 0 kts 348°
2026-05-07 10:28 34.85756 136.81171 28 ft 4 kts 345°
2026-05-07 10:28 34.85730 136.81181 28 ft 4 kts 337°
2026-05-07 10:28 34.85707 136.81196 28 ft 3 kts 322°
2026-05-07 10:29 34.85701 136.81201 28 ft 0 kts 321°
2026-05-07 10:32 34.85702 136.81194 28 ft 1 kts 280°
2026-05-07 10:32 34.85699 136.81185 28 ft 3 kts 254°
2026-05-07 10:32 34.85681 136.81126 28 ft 10 kts 250°
2026-05-07 10:32 34.85660 136.81041 28 ft 11 kts 263°
2026-05-07 10:33 34.85676 136.80945 28 ft 13 kts 317°
2026-05-07 10:33 34.85769 136.80912 28 ft 15 kts 348°
2026-05-07 10:33 34.85876 136.80886 28 ft 17 kts 349°
2026-05-07 10:33 34.85998 136.80858 28 ft 18 kts 349°
2026-05-07 10:34 34.86129 136.80828 28 ft 20 kts 348°
2026-05-07 10:34 34.86267 136.80790 28 ft 21 kts 349°
2026-05-07 10:34 34.86417 136.80756 29 ft 23 kts 349°
2026-05-07 10:34 34.86579 136.80715 29 ft 24 kts 348°
2026-05-07 10:35 34.86749 136.80675 28 ft 25 kts 349°
2026-05-07 10:35 34.86926 136.80632 28 ft 26 kts 349°
2026-05-07 10:35 34.87109 136.80589 28 ft 27 kts 349°
2026-05-07 10:35 34.87280 136.80548 28 ft 22 kts 349°
2026-05-07 10:36 34.87401 136.80507 28 ft 17 kts 320°
2026-05-07 10:36 34.87404 136.80364 28 ft 16 kts 258°
2026-05-07 10:36 34.87396 136.80316 27 ft 0 kts 257°
2026-05-07 10:38 34.87395 136.80312 27 ft 3 kts 257°
2026-05-07 10:38 34.87388 136.80272 30 ft 8 kts 257°
2026-05-07 10:38 34.87365 136.80189 27 ft 11 kts 225°
2026-05-07 10:39 34.87304 136.80187 28 ft 0 kts 168°
2026-05-07 10:39 34.87302 136.80188 26 ft 2 kts 168°
2026-05-07 10:39 34.87139 136.80227 27 ft 61 kts 168°
2026-05-07 10:39 34.86477 136.80385 29 ft 129 kts 169°
2026-05-07 10:40 34.85423 136.80640 174 ft 166 kts 168°
2026-05-07 10:40 34.84304 136.80851 873 ft 165 kts 180°
2026-05-07 10:40 34.83195 136.80504 1583 ft 165 kts 199°
2026-05-07 10:40 34.82073 136.80069 2062 ft 178 kts 198°
2026-05-07 10:41 34.80818 136.79599 2317 ft 199 kts 198°
2026-05-07 10:41 34.79404 136.79078 2532 ft 224 kts 198°
2026-05-07 10:41 34.77832 136.78500 2885 ft 248 kts 197°
2026-05-07 10:41 34.76135 136.77883 3476 ft 259 kts 197°
2026-05-07 10:42 34.74392 136.77251 4274 ft 263 kts 198°
2026-05-07 10:42 34.72642 136.76616 5058 ft 268 kts 197°
2026-05-07 10:42 34.70850 136.75966 5891 ft 270 kts 198°
2026-05-07 10:42 34.69046 136.75311 6740 ft 271 kts 198°
2026-05-07 10:43 34.67233 136.74651 7555 ft 272 kts 198°
2026-05-07 10:43 34.65416 136.73988 8390 ft 273 kts 199°
2026-05-07 10:43 34.63593 136.73324 9239 ft 274 kts 199°
2026-05-07 10:43 34.61756 136.72658 10049 ft 276 kts 200°
2026-05-07 10:44 34.59866 136.71972 10447 ft 293 kts 200°
2026-05-07 10:44 34.57832 136.71230 10636 ft 316 kts 199°
2026-05-07 10:44 34.55647 136.70446 10874 ft 335 kts 199°
2026-05-07 10:44 34.53367 136.69684 11429 ft 342 kts 198°
2026-05-07 10:45 34.51076 136.68951 12053 ft 347 kts 198°
2026-05-07 10:45 34.48719 136.68209 12692 ft 351 kts 198°
2026-05-07 10:45 34.46336 136.67457 13335 ft 356 kts 198°
2026-05-07 10:45 34.43923 136.66687 13942 ft 360 kts 198°
2026-05-07 10:46 34.41483 136.65903 14496 ft 364 kts 198°
2026-05-07 10:46 34.39044 136.65115 14970 ft 370 kts 198°
2026-05-07 10:46 34.36539 136.64309 15523 ft 373 kts 198°
2026-05-07 10:46 34.34018 136.63499 16091 ft 376 kts 198°
2026-05-07 10:47 34.31458 136.62676 16682 ft 380 kts 198°
2026-05-07 10:47 34.28892 136.61849 17240 ft 384 kts 198°
2026-05-07 10:47 34.26301 136.61013 17791 ft 388 kts 198°
2026-05-07 10:47 34.23680 136.60168 18314 ft 392 kts 198°
2026-05-07 10:48 34.21087 136.59276 18778 ft 393 kts 202°
2026-05-07 10:48 34.18600 136.57908 19270 ft 393 kts 212°
2026-05-07 10:48 34.16365 136.56018 19780 ft 393 kts 223°
2026-05-07 10:48 34.14320 136.53805 20282 ft 395 kts 224°
2026-05-07 10:49 34.12266 136.51578 20791 ft 397 kts 224°
2026-05-07 10:49 34.10218 136.49365 21275 ft 400 kts 224°
2026-05-07 10:49 34.08130 136.47112 21715 ft 403 kts 224°
2026-05-07 10:49 34.06026 136.44844 22152 ft 407 kts 224°
2026-05-07 10:50 34.03906 136.42558 22596 ft 410 kts 223°
2026-05-07 10:50 34.01775 136.40263 23041 ft 412 kts 223°
2026-05-07 10:50 33.99630 136.37953 23493 ft 415 kts 223°
2026-05-07 10:50 33.97462 136.35623 23867 ft 417 kts 223°
2026-05-07 10:51 33.95313 136.33313 24246 ft 419 kts 223°
2026-05-07 10:51 33.93133 136.30972 24648 ft 421 kts 223°
2026-05-07 10:51 33.90937 136.28616 25027 ft 423 kts 223°
2026-05-07 10:51 33.88728 136.26249 25412 ft 425 kts 223°
2026-05-07 10:52 33.86510 136.23875 25800 ft 427 kts 223°
2026-05-07 10:52 33.84310 136.21522 26172 ft 428 kts 223°
2026-05-07 10:52 33.82076 136.19134 26550 ft 430 kts 223°
2026-05-07 10:52 33.79825 136.16725 26917 ft 432 kts 223°
2026-05-07 10:53 33.77576 136.14317 27314 ft 433 kts 223°
2026-05-07 10:53 33.75319 136.11901 27681 ft 434 kts 223°
2026-05-07 10:53 33.73090 136.09518 27927 ft 436 kts 223°
2026-05-07 10:53 33.70832 136.07111 27970 ft 431 kts 223°
2026-05-07 10:54 33.68584 136.04720 27972 ft 429 kts 223°
2026-05-07 10:54 33.66355 136.02346 27978 ft 428 kts 223°
2026-05-07 10:54 33.64129 135.99974 27976 ft 428 kts 223°
2026-05-07 10:54 33.61901 135.97606 27974 ft 428 kts 223°
2026-05-07 10:55 33.59698 135.95265 27972 ft 427 kts 223°
2026-05-07 10:55 33.57469 135.92899 27977 ft 427 kts 223°
2026-05-07 10:55 33.55245 135.90541 27973 ft 426 kts 223°
2026-05-07 10:55 33.53018 135.88185 27976 ft 426 kts 223°
2026-05-07 10:56 33.50790 135.85828 27979 ft 426 kts 223°
2026-05-07 10:56 33.48692 135.83390 27976 ft 425 kts 231°
2026-05-07 10:56 33.47001 135.80494 27971 ft 423 kts 242°
2026-05-07 10:56 33.45838 135.77262 27973 ft 423 kts 252°
2026-05-07 10:57 33.45228 135.73806 27976 ft 424 kts 263°
2026-05-07 10:57 33.45182 135.70263 27983 ft 425 kts 271°
2026-05-07 10:57 33.45341 135.66774 27982 ft 425 kts 271°
2026-05-07 10:57 33.45499 135.63240 27982 ft 425 kts 271°
2026-05-07 10:58 33.45656 135.59700 27984 ft 425 kts 271°
2026-05-07 10:58 33.45809 135.56163 27973 ft 425 kts 271°
2026-05-07 10:58 33.45960 135.52625 27981 ft 425 kts 271°
2026-05-07 10:58 33.46110 135.49087 27996 ft 425 kts 271°
2026-05-07 10:59 33.46258 135.45544 27995 ft 425 kts 270°
2026-05-07 10:59 33.46404 135.42004 27994 ft 425 kts 270°
2026-05-07 10:59 33.46649 135.38474 27987 ft 426 kts 277°
2026-05-07 10:59 33.47423 135.35030 27984 ft 430 kts 288°
2026-05-07 11:00 33.48772 135.31818 27987 ft 435 kts 299°
2026-05-07 11:00 33.50665 135.28969 27982 ft 441 kts 311°
2026-05-07 11:00 33.52943 135.26544 27981 ft 444 kts 315°
2026-05-07 11:00 33.55286 135.24138 27995 ft 444 kts 315°
2026-05-07 11:01 33.57630 135.21714 27988 ft 447 kts 315°
2026-05-07 11:01 33.59991 135.19257 27974 ft 451 kts 315°
2026-05-07 11:01 33.62364 135.16783 27975 ft 453 kts 315°
2026-05-07 11:01 33.64745 135.14302 27973 ft 453 kts 315°
2026-05-07 11:02 33.67147 135.11841 27973 ft 454 kts 316°
2026-05-07 11:02 33.69607 135.09454 27916 ft 454 kts 317°
2026-05-07 11:02 33.72070 135.07155 26694 ft 443 kts 318°
2026-05-07 11:02 33.73701 135.05659 25483 ft 447 kts 319°
2026-05-07 11:03 33.76968 135.02680 23541 ft 441 kts 319°
2026-05-07 11:03 33.79380 135.00468 22025 ft 432 kts 319°
2026-05-07 11:03 33.81732 134.98290 21007 ft 420 kts 318°
2026-05-07 11:03 33.84054 134.96245 20727 ft 410 kts 324°
2026-05-07 11:04 33.85723 134.95170 20383 ft 411 kts 332°
2026-05-07 11:04 33.88450 134.94092 19845 ft 415 kts 344°
2026-05-07 11:04 33.91337 134.93734 19301 ft 419 kts 356°
2026-05-07 11:04 33.94253 134.94092 18782 ft 421 kts
2026-05-07 11:05 33.97147 134.94655 18231 ft 420 kts
2026-05-07 11:05 34.00031 134.95214 17639 ft 417 kts
2026-05-07 11:05 34.02884 134.95762 17089 ft 414 kts
2026-05-07 11:05 34.05690 134.96299 16533 ft 411 kts
2026-05-07 11:06 34.08509 134.96837 15960 ft 408 kts
2026-05-07 11:06 34.11309 134.97369 15372 ft 405 kts
2026-05-07 11:06 34.14089 134.97899 14795 ft 403 kts
2026-05-07 11:06 34.16854 134.98425 14207 ft 401 kts
2026-05-07 11:07 34.19597 134.98948 13692 ft 396 kts
2026-05-07 11:07 34.22315 134.99469 13045 ft 394 kts
2026-05-07 11:07 34.25007 134.99986 12452 ft 390 kts
2026-05-07 11:07 34.27641 135.00502 11888 ft 387 kts
2026-05-07 11:08 34.30240 135.01336 11332 ft 384 kts 13°
2026-05-07 11:08 34.32797 135.02239 10796 ft 380 kts 13°
2026-05-07 11:08 34.35285 135.03117 10644 ft 365 kts 13°
2026-05-07 11:08 34.37670 135.03960 10533 ft 350 kts 13°
2026-05-07 11:09 34.39955 135.04780 10410 ft 336 kts 16°
2026-05-07 11:09 34.41893 135.05840 10307 ft 327 kts 28°
2026-05-07 11:09 34.43795 135.07302 10144 ft 318 kts 30°
2026-05-07 11:09 34.45638 135.08728 9948 ft 311 kts 30°
2026-05-07 11:10 34.47472 135.10141 9395 ft 318 kts 30°
2026-05-07 11:10 34.49296 135.11544 9107 ft 309 kts 30°
2026-05-07 11:10 34.51096 135.12927 8352 ft 304 kts 31°
2026-05-07 11:10 34.52867 135.14291 7651 ft 299 kts 31°
2026-05-07 11:11 34.54594 135.15625 7116 ft 288 kts 31°
2026-05-07 11:11 34.56252 135.16907 6613 ft 278 kts 31°
2026-05-07 11:11 34.57840 135.18135 6112 ft 269 kts 32°
2026-05-07 11:11 34.59227 135.19588 5640 ft 261 kts 51°
2026-05-07 11:12 34.60140 135.21468 5171 ft 260 kts 70°
2026-05-07 11:12 34.60492 135.23614 4666 ft 258 kts 90°
2026-05-07 11:12 34.60275 135.25715 4179 ft 244 kts 105°
2026-05-07 11:12 34.59822 135.27650 3762 ft 231 kts 110°
2026-05-07 11:13 34.59275 135.29408 3510 ft 210 kts 115°
2026-05-07 11:13 34.58700 135.30897 3462 ft 186 kts 120°
2026-05-07 11:13 34.58119 135.32173 3414 ft 159 kts 124°
2026-05-07 11:13 34.57542 135.33268 3337 ft 151 kts 128°
2026-05-07 11:14 34.56928 135.34285 3267 ft 149 kts 131°
2026-05-07 11:14 34.56271 135.35250 3203 ft 148 kts 135°
2026-05-07 11:14 34.55461 135.35975 3140 ft 144 kts 159°
2026-05-07 11:14 34.54498 135.36238 3087 ft 141 kts 181°
2026-05-07 11:15 34.53544 135.36020 3027 ft 139 kts 203°
2026-05-07 11:15 34.52747 135.35370 2975 ft 139 kts 225°
2026-05-07 11:15 34.52130 135.34465 2926 ft 139 kts 230°
2026-05-07 11:15 34.51514 135.33544 2693 ft 143 kts 230°
2026-05-07 11:16 34.50886 135.32599 2098 ft 148 kts 229°
2026-05-07 11:16 34.50248 135.31634 1668 ft 141 kts 229°
2026-05-07 11:16 34.49647 135.30739 1399 ft 134 kts 229°
2026-05-07 11:16 34.49053 135.29871 1231 ft 133 kts 226°
2026-05-07 11:17 34.48466 135.28999 1054 ft 133 kts 229°
2026-05-07 11:17 34.47886 135.28117 909 ft 133 kts 229°
2026-05-07 11:17 34.47306 135.27241 750 ft 134 kts 229°
2026-05-07 11:17 34.46748 135.26428 581 ft 132 kts 231°
2026-05-07 11:18 34.46173 135.25557 362 ft 132 kts 232°
2026-05-07 11:18 34.45601 135.24701 195 ft 130 kts 232°
2026-05-07 11:18 34.45038 135.23857 90 ft 124 kts 231°
2026-05-07 11:18 34.44561 135.23153 50 ft 86 kts 231°
2026-05-07 11:19 34.44290 135.22751 50 ft 40 kts 231°
2026-05-07 11:19 34.44149 135.22564 48 ft 25 kts 213°
2026-05-07 11:19 34.44003 135.22476 51 ft 19 kts 198°
2026-05-07 11:19 34.43930 135.22454 50 ft 0 kts 174°
2026-05-07 11:20 34.43927 135.22455 50 ft 2 kts 175°
2026-05-07 11:20 34.43886 135.22464 49 ft 8 kts 161°
2026-05-07 11:20 34.43865 135.22477 47 ft 9 kts 152°
2026-05-07 11:21 34.43850 135.22487 47 ft 3 kts 149°
2026-05-07 11:21 34.43846 135.22490 48 ft 0 kts 147°
2026-05-07 11:22 34.43842 135.22494 49 ft 3 kts 145°
2026-05-07 11:22 34.43809 135.22525 46 ft 8 kts 142°
2026-05-07 11:22 34.43759 135.22572 48 ft 10 kts 142°
2026-05-07 11:22 34.43695 135.22632 45 ft 13 kts 142°
2026-05-07 11:23 34.43621 135.22704 46 ft 15 kts 140°
2026-05-07 11:23 34.43539 135.22784 49 ft 14 kts 142°
2026-05-07 11:23 34.43476 135.22866 47 ft 13 kts 104°
2026-05-07 11:23 34.43524 135.22954 49 ft 12 kts 45°
2026-05-07 11:24 34.43565 135.23013 49 ft 5 kts 51°
2026-05-07 11:24 34.43568 135.23017 49 ft 0 kts 51°